TimeEST,TemperatureF,Dew PointF,Humidity,Sea Level PressureIn,VisibilityMPH,Wind Direction,Wind SpeedMPH,Gust SpeedMPH,PrecipitationIn,Events,Conditions,WindDirDegrees,DateUTC
12:45 AM,30.2,21.2,69,30.24,10.0,NNW,6.9,-,N/A,,Clear,340,2012-12-06 05:45:00
1:45 AM,30.2,21.2,69,30.26,10.0,NNW,11.5,-,N/A,,Clear,340,2012-12-06 06:45:00
2:45 AM,30.2,21.2,69,30.28,10.0,NW,9.2,-,N/A,,Clear,310,2012-12-06 07:45:00
3:45 AM,24.8,17.6,74,30.27,10.0,West,5.8,-,N/A,,Clear,280,2012-12-06 08:45:00
4:45 AM,24.8,17.6,74,30.30,10.0,Calm,Calm,-,N/A,,Clear,0,2012-12-06 09:45:00
5:45 AM,24.8,17.6,74,30.33,10.0,West,4.6,-,N/A,,Clear,280,2012-12-06 10:45:00
6:45 AM,23.0,17.6,80,30.35,20.0,Calm,Calm,-,N/A,,Clear,0,2012-12-06 11:45:00
7:50 AM,26.6,17.6,69,30.35,20.0,Calm,Calm,-,N/A,,Clear,0,2012-12-06 12:50:00
9:45 AM,32.0,19.4,60,30.37,20.0,Variable,5.8,-,N/A,,Scattered Clouds,0,2012-12-06 14:45:00
10:50 AM,51.8,46.4,82,30.36,20.0,Variable,5.8,-,N/A,,Scattered Clouds,0,2012-12-06 15:50:00
12:45 PM,35.6,19.4,52,30.31,20.0,Calm,Calm,-,N/A,,Scattered Clouds,0,2012-12-06 17:45:00
1:45 PM,37.4,19.4,48,30.30,20.0,Calm,Calm,-,N/A,,Scattered Clouds,0,2012-12-06 18:45:00
2:45 PM,35.6,19.4,52,30.18,20.0,Calm,Calm,-,N/A,,Scattered Clouds,0,2012-12-06 19:45:00
3:45 PM,35.6,19.4,52,30.28,20.0,Calm,Calm,-,N/A,,Scattered Clouds,0,2012-12-06 20:45:00
4:45 PM,33.8,19.4,56,30.29,10.0,Calm,Calm,-,N/A,,Scattered Clouds,0,2012-12-06 21:45:00
5:45 PM,32.0,21.2,64,30.29,10.0,Calm,Calm,-,N/A,,Scattered Clouds,0,2012-12-06 22:45:00
6:45 PM,30.2,21.2,69,30.29,10.0,Calm,Calm,-,N/A,,Partly Cloudy,0,2012-12-06 23:45:00
7:45 PM,26.6,21.2,80,30.30,10.0,Calm,Calm,-,N/A,,Clear,0,2012-12-07 00:45:00
8:45 PM,26.6,19.4,74,30.29,10.0,Calm,Calm,-,N/A,,Clear,0,2012-12-07 01:45:00
9:45 PM,24.8,19.4,80,30.29,10.0,Calm,Calm,-,N/A,,Clear,0,2012-12-07 02:45:00
10:45 PM,23.0,19.4,86,30.28,10.0,Calm,Calm,-,N/A,,Clear,0,2012-12-07 03:45:00
11:45 PM,23.0,19.4,86,30.29,10.0,Calm,Calm,-,N/A,,Clear,0,2012-12-07 04:45:00